| time (UTC) | temp C | wind direction | speed KPH | gust KPH | rain 1hr cm | rain 24hr cm | rain mn cm | humidity % | barometer mb |
| 20260510225502 | 13 | 179 | 3.2 | 4.8 | 0.00 | 0.00 | 0.00 | 39 | 1021.4 |
| 20260510225001 | 13 | 316 | 1.6 | 3.2 | 0.00 | 0.00 | 0.00 | 39 | 1021.1 |
| 20260510224001 | 13 | 219 | 1.6 | 3.2 | 0.00 | 0.00 | 0.00 | 37 | 1021.0 |
| 20260510223502 | 13 | 315 | 1.6 | 3.2 | 0.00 | 0.00 | 0.00 | 39 | 1021.1 |
| 20260510223001 | 13 | 222 | 3.2 | 3.2 | 0.00 | 0.00 | 0.00 | 38 | 1021.0 |
| 20260510222502 | 14 | 319 | 1.6 | 3.2 | 0.00 | 0.00 | 0.00 | 36 | 1021.1 |
| 20260510222001 | 13 | 300 | 1.6 | 3.2 | 0.00 | 0.00 | 0.00 | 37 | 1021.0 |
| 20260510221502 | 13 | 321 | 3.2 | 4.8 | 0.00 | 0.00 | 0.00 | 36 | 1020.9 |
| 20260510221002 | 13 | 322 | 0.0 | 0.0 | 0.00 | 0.00 | 0.00 | 39 | 1020.9 |
| 20260510220501 | 13 | 223 | 1.6 | 3.2 | 0.00 | 0.00 | 0.00 | 35 | 1020.9 |
| 20260510215002 | 14 | 207 | 3.2 | 6.4 | 0.00 | 0.00 | 0.00 | 36 | 1020.8 |
| 20260510214501 | 14 | 297 | 1.6 | 3.2 | 0.00 | 0.00 | 0.00 | 35 | 1020.7 |
| 20260510214002 | 14 | 339 | 0.0 | 0.0 | 0.00 | 0.00 | 0.00 | 39 | 1020.6 |
| 20260510213502 | 14 | 262 | 3.2 | 4.8 | 0.00 | 0.00 | 0.00 | 37 | 1020.6 |
| 20260510212502 | 14 | 244 | 4.8 | 4.8 | 0.00 | 0.00 | 0.00 | 38 | 1020.5 |
| 20260510212001 | 14 | 1 | 1.6 | 3.2 | 0.00 | 0.00 | 0.00 | 34 | 1020.4 |
| 20260510211001 | 14 | 209 | 3.2 | 3.2 | 0.00 | 0.00 | 0.00 | 33 | 1020.4 |
| 20260510210502 | 14 | 201 | 4.8 | 6.4 | 0.00 | 0.00 | 0.00 | 34 | 1020.4 |
| 20260510210002 | 14 | 319 | 1.6 | 3.2 | 0.00 | 0.00 | 0.00 | 34 | 1020.3 |
| 20260510205502 | 13 | 254 | 3.2 | 4.8 | 0.00 | 0.00 | 0.00 | 37 | 1020.2 |
| 20260510204502 | 13 | 310 | 1.6 | 3.2 | 0.00 | 0.00 | 0.00 | 33 | 1020.4 |
| 20260510202501 | 13 | 306 | 3.2 | 4.8 | 0.00 | 0.00 | 0.00 | 33 | 1020.3 |
| 20260510202002 | 13 | 250 | 3.2 | 3.2 | 0.00 | 0.00 | 0.00 | 36 | 1020.5 |
| 20260510194502 | 13 | 249 | 1.6 | 3.2 | 0.00 | 0.00 | 0.00 | 33 | 1020.7 |
| 20260510194001 | 13 | 14 | 3.2 | 4.8 | 0.00 | 0.00 | 0.00 | 35 | 1020.8 |
| 20260510193502 | 13 | 322 | 0.0 | 0.0 | 0.00 | 0.00 | 0.00 | 35 | 1020.7 |
| 20260510193002 | 13 | 13 | 1.6 | 3.2 | 0.00 | 0.00 | 0.00 | 35 | 1021.0 |
| 20260510192501 | 13 | 291 | 3.2 | 4.8 | 0.00 | 0.00 | 0.00 | 36 | 1020.9 |
| 20260510191501 | 13 | 40 | 1.6 | 3.2 | 0.00 | 0.00 | 0.00 | 34 | 1020.9 |
| 20260510191002 | 13 | 1 | 1.6 | 3.2 | 0.00 | 0.00 | 0.00 | 33 | 1020.8 |
| 20260510185001 | 13 | 176 | 4.8 | 4.8 | 0.00 | 0.00 | 0.00 | 37 | 1020.7 |
| 20260510184502 | 13 | 238 | 4.8 | 6.4 | 0.00 | 0.00 | 0.00 | 38 | 1020.7 |
| 20260510184001 | 13 | 221 | 4.8 | 6.4 | 0.00 | 0.00 | 0.00 | 36 | 1020.6 |
| 20260510183502 | 14 | 340 | 1.6 | 3.2 | 0.00 | 0.00 | 0.00 | 34 | 1020.8 |
| 20260510183002 | 14 | 256 | 4.8 | 6.4 | 0.00 | 0.00 | 0.00 | 37 | 1020.6 |
| 20260510182501 | 13 | 297 | 6.4 | 8.0 | 0.00 | 0.00 | 0.00 | 35 | 1020.5 |
| 20260510182002 | 13 | 170 | 4.8 | 4.8 | 0.00 | 0.00 | 0.00 | 31 | 1020.4 |
| 20260510181501 | 13 | 349 | 0.0 | 0.0 | 0.00 | 0.00 | 0.00 | 34 | 1020.6 |
| 20260510180002 | 13 | 203 | 3.2 | 4.8 | 0.00 | 0.00 | 0.00 | 33 | 1020.4 |
| 20260510175002 | 14 | 228 | 3.2 | 4.8 | 0.00 | 0.00 | 0.00 | 33 | 1020.5 |
| 20260510174502 | 13 | 223 | 4.8 | 4.8 | 0.00 | 0.00 | 0.00 | 41 | 1020.3 |
| 20260510174001 | 13 | 300 | 3.2 | 4.8 | 0.00 | 0.00 | 0.00 | 42 | 1020.2 |
| 20260510173502 | 12 | 225 | 1.6 | 3.2 | 0.00 | 0.00 | 0.00 | 39 | 1020.3 |
| 20260510173001 | 12 | 335 | 0.0 | 0.0 | 0.00 | 0.00 | 0.00 | 35 | 1020.3 |
| 20260510172502 | 12 | 38 | 3.2 | 4.8 | 0.00 | 0.00 | 0.00 | 34 | 1020.6 |
| 20260510170502 | 12 | 282 | 1.6 | 3.2 | 0.00 | 0.00 | 0.00 | 36 | 1020.7 |
| 20260510170001 | 12 | 176 | 4.8 | 4.8 | 0.00 | 0.00 | 0.00 | 37 | 1020.6 |
| 20260510165001 | 12 | 28 | 4.8 | 6.4 | 0.00 | 0.00 | 0.00 | 33 | 1020.7 |
| 20260510164502 | 12 | 323 | 3.2 | 4.8 | 0.00 | 0.00 | 0.00 | 40 | 1020.5 |
| 20260510162002 | 12 | 242 | 3.2 | 3.2 | 0.00 | 0.00 | 0.00 | 36 | 1020.4 |
| 20260510155502 | 11 | 185 | 3.2 | 3.2 | 0.00 | 0.00 | 0.00 | 40 | 1020.5 |
| 20260510155001 | 11 | 13 | 1.6 | 4.8 | 0.00 | 0.00 | 0.00 | 42 | 1020.5 |
| 20260510154502 | 11 | 352 | 3.2 | 4.8 | 0.00 | 0.00 | 0.00 | 38 | 1020.4 |
| 20260510154001 | 11 | 3 | 4.8 | 6.4 | 0.00 | 0.00 | 0.00 | 37 | 1020.5 |
| 20260510153502 | 11 | 4 | 3.2 | 4.8 | 0.00 | 0.00 | 0.00 | 42 | 1020.3 |
| 20260510152501 | 11 | 349 | 1.6 | 3.2 | 0.00 | 0.00 | 0.00 | 41 | 1020.1 |
| 20260510152002 | 11 | 332 | 1.6 | 3.2 | 0.00 | 0.00 | 0.00 | 42 | 1020.2 |
| 20260510151002 | 11 | 196 | 3.2 | 4.8 | 0.00 | 0.00 | 0.00 | 38 | 1020.2 |
| 20260510150501 | 10 | 329 | 0.0 | 0.0 | 0.00 | 0.00 | 0.00 | 40 | 1020.2 |
| 20260510150002 | 10 | 8 | 0.0 | 0.0 | 0.00 | 0.00 | 0.00 | 43 | 1020.0 |
| 20260510145501 | 10 | 225 | 0.0 | 0.0 | 0.00 | 0.00 | 0.00 | 45 | 1020.2 |
| 20260510145002 | 11 | 323 | 3.2 | 4.8 | 0.00 | 0.00 | 0.00 | 41 | 1020.2 |
| 20260510143501 | 10 | 34 | 1.6 | 3.2 | 0.00 | 0.00 | 0.00 | 45 | 1020.0 |
| 20260510143002 | 10 | 320 | 1.6 | 3.2 | 0.00 | 0.00 | 0.00 | 44 | 1019.8 |
| 20260510142501 | 10 | 121 | 3.2 | 4.8 | 0.00 | 0.00 | 0.00 | 43 | 1019.9 |
| 20260510141502 | 10 | 4 | 1.6 | 3.2 | 0.00 | 0.00 | 0.00 | 42 | 1019.9 |
| 20260510141002 | 10 | 42 | 1.6 | 3.2 | 0.00 | 0.00 | 0.00 | 48 | 1019.7 |
| 20260510140502 | 10 | 288 | 0.0 | 0.0 | 0.00 | 0.00 | 0.00 | 46 | 1019.8 |
| 20260510135502 | 10 | 44 | 0.0 | 0.0 | 0.00 | 0.00 | 0.00 | 44 | 1019.7 |
| 20260510134502 | 9 | 357 | 0.0 | 0.0 | 0.00 | 0.00 | 0.00 | 46 | 1019.8 |
| 20260510134002 | 8 | 54 | 1.6 | 3.2 | 0.00 | 0.00 | 0.00 | 44 | 1019.7 |
| 20260510133502 | 8 | 64 | 1.6 | 3.2 | 0.00 | 0.00 | 0.00 | 44 | 1019.6 |
| 20260510130501 | 8 | 341 | 0.0 | 0.0 | 0.00 | 0.00 | 0.00 | 46 | 1019.2 |
| 20260510125002 | 8 | 337 | 0.0 | 0.0 | 0.00 | 0.00 | 0.00 | 48 | 1019.2 |
| 20260510124501 | 8 | 2 | 0.0 | 0.0 | 0.00 | 0.00 | 0.00 | 50 | 1019.2 |
| 20260510123502 | 8 | 334 | 0.0 | 0.0 | 0.00 | 0.00 | 0.00 | 55 | 1019.2 |
| 20260510123001 | 8 | 357 | 0.0 | 0.0 | 0.00 | 0.00 | 0.00 | 54 | 1018.9 |
| 20260510122502 | 8 | 346 | 0.0 | 0.0 | 0.00 | 0.00 | 0.00 | 53 | 1018.9 |
| 20260510122001 | 7 | 13 | 0.0 | 0.0 | 0.00 | 0.00 | 0.00 | 56 | 1018.8 |
| 20260510121502 | 7 | 332 | 1.6 | 3.2 | 0.00 | 0.00 | 0.00 | 59 | 1018.8 |
| 20260510121001 | 7 | 359 | 0.0 | 0.0 | 0.00 | 0.00 | 0.00 | 59 | 1018.7 |
| 20260510120502 | 7 | 326 | 0.0 | 0.0 | 0.00 | 0.00 | 0.00 | 59 | 1018.9 |
| 20260510115502 | 7 | 348 | 0.0 | 0.0 | 0.00 | 0.00 | 0.00 | 62 | 1018.5 |
| 20260510114502 | 6 | 318 | 0.0 | 0.0 | 0.00 | 0.00 | 0.00 | 64 | 1018.5 |
| 20260510114002 | 5 | 337 | 0.0 | 0.0 | 0.00 | 0.00 | 0.00 | 66 | 1018.5 |
| 20260510113501 | 5 | 25 | 0.0 | 0.0 | 0.00 | 0.00 | 0.00 | 70 | 1018.5 |
| 20260510113002 | 5 | 25 | 0.0 | 0.0 | 0.00 | 0.00 | 0.00 | 77 | 1018.2 |
| 20260510112501 | 3 | 25 | 0.0 | 0.0 | 0.00 | 0.00 | 0.00 | 81 | 1018.4 |
| 20260510111502 | 2 | 25 | 0.0 | 0.0 | 0.00 | 0.00 | 0.00 | 83 | 1018.3 |
| 20260510111002 | 2 | 24 | 0.0 | 0.0 | 0.00 | 0.00 | 0.00 | 83 | 1018.2 |
| 20260510110502 | 2 | 24 | 0.0 | 0.0 | 0.00 | 0.00 | 0.00 | 83 | 1018.2 |
| 20260510104501 | 2 | 24 | 0.0 | 0.0 | 0.00 | 0.00 | 0.00 | 82 | 1017.9 |
| 20260510103501 | 2 | 24 | 0.0 | 0.0 | 0.00 | 0.00 | 0.00 | 82 | 1017.7 |
| 20260510103002 | 2 | 24 | 0.0 | 0.0 | 0.00 | 0.00 | 0.00 | 81 | 1017.7 |
| 20260510102502 | 2 | 24 | 0.0 | 0.0 | 0.00 | 0.00 | 0.00 | 81 | 1017.8 |
| 20260510102002 | 2 | 24 | 0.0 | 0.0 | 0.00 | 0.00 | 0.00 | 81 | 1017.6 |
| 20260510101001 | 2 | 22 | 0.0 | 0.0 | 0.00 | 0.00 | 0.00 | 80 | 1017.2 |
| 20260510100502 | 2 | 10 | 0.0 | 0.0 | 0.00 | 0.00 | 0.00 | 81 | 1017.3 |
| 20260510100001 | 2 | 10 | 0.0 | 0.0 | 0.00 | 0.00 | 0.00 | 79 | 1017.4 |
| 20260510095502 | 2 | 10 | 0.0 | 0.0 | 0.00 | 0.00 | 0.00 | 79 | 1017.2 |
| 20260510095002 | 2 | 11 | 0.0 | 0.0 | 0.00 | 0.00 | 0.00 | 78 | 1017.3 |
| 20260510094501 | 3 | 10 | 0.0 | 0.0 | 0.00 | 0.00 | 0.00 | 79 | 1017.1 |
| 20260510094002 | 2 | 13 | 0.0 | 0.0 | 0.00 | 0.00 | 0.00 | 77 | 1017.0 |
| 20260510093501 | 3 | 349 | 0.0 | 0.0 | 0.00 | 0.00 | 0.00 | 79 | 1017.0 |
| 20260510092002 | 3 | 4 | 0.0 | 0.0 | 0.00 | 0.00 | 0.00 | 80 | 1016.7 |
| 20260510091502 | 3 | 3 | 0.0 | 0.0 | 0.00 | 0.00 | 0.00 | 78 | 1016.7 |
| 20260510091001 | 3 | 3 | 0.0 | 0.0 | 0.00 | 0.00 | 0.00 | 76 | 1016.8 |
| 20260510090502 | 3 | 3 | 0.0 | 0.0 | 0.00 | 0.00 | 0.00 | 76 | 1016.6 |
| 20260510090001 | 3 | 359 | 0.0 | 0.0 | 0.00 | 0.00 | 0.00 | 76 | 1016.5 |
| 20260510085502 | 3 | 18 | 0.0 | 0.0 | 0.00 | 0.00 | 0.00 | 74 | 1016.5 |
| 20260510083501 | 4 | 359 | 0.0 | 0.0 | 0.00 | 0.00 | 0.00 | 72 | 1016.0 |
| 20260510083002 | 4 | 0 | 0.0 | 0.0 | 0.00 | 0.00 | 0.00 | 71 | 1016.1 |
| 20260510082502 | 4 | 0 | 0.0 | 0.0 | 0.00 | 0.00 | 0.00 | 71 | 1015.9 |
| 20260510082002 | 5 | 0 | 0.0 | 0.0 | 0.00 | 0.00 | 0.00 | 72 | 1015.8 |
| 20260510081002 | 5 | 0 | 0.0 | 0.0 | 0.00 | 0.00 | 0.00 | 66 | 1015.9 |
| 20260510080502 | 5 | 359 | 0.0 | 0.0 | 0.00 | 0.00 | 0.00 | 67 | 1015.8 |
| 20260510080002 | 5 | 359 | 0.0 | 0.0 | 0.00 | 0.00 | 0.00 | 67 | 1015.7 |
| 20260510075001 | 5 | 357 | 0.0 | 0.0 | 0.00 | 0.00 | 0.00 | 66 | 1015.5 |
| 20260510074001 | 5 | 350 | 0.0 | 0.0 | 0.00 | 0.00 | 0.00 | 67 | 1015.4 |
| 20260510073502 | 5 | 350 | 0.0 | 0.0 | 0.00 | 0.00 | 0.00 | 66 | 1015.4 |
| 20260510073002 | 6 | 349 | 0.0 | 0.0 | 0.00 | 0.00 | 0.00 | 65 | 1015.2 |
| 20260510072502 | 6 | 345 | 0.0 | 0.0 | 0.00 | 0.00 | 0.00 | 65 | 1015.3 |
| 20260510071501 | 6 | 8 | 0.0 | 0.0 | 0.00 | 0.00 | 0.00 | 64 | 1015.1 |
| 20260510070501 | 6 | 14 | 0.0 | 0.0 | 0.00 | 0.00 | 0.00 | 63 | 1015.0 |
| 20260510070002 | 6 | 322 | 1.6 | 3.2 | 0.00 | 0.00 | 0.00 | 64 | 1014.7 |
| 20260510065502 | 6 | 2 | 0.0 | 0.0 | 0.00 | 0.00 | 0.00 | 66 | 1014.9 |
| 20260510065001 | 6 | 13 | 0.0 | 0.0 | 0.00 | 0.00 | 0.00 | 65 | 1014.7 |
| 20260510064502 | 6 | 355 | 0.0 | 0.0 | 0.00 | 0.00 | 0.00 | 65 | 1014.4 |
| 20260510064001 | 6 | 345 | 1.6 | 3.2 | 0.00 | 0.00 | 0.00 | 65 | 1014.3 |
| 20260510063502 | 6 | 53 | 1.6 | 3.2 | 0.00 | 0.00 | 0.00 | 64 | 1014.3 |
| 20260510063002 | 6 | 2 | 0.0 | 0.0 | 0.00 | 0.00 | 0.00 | 64 | 1014.3 |
| 20260510062501 | 6 | 9 | 0.0 | 0.0 | 0.00 | 0.00 | 0.00 | 64 | 1014.2 |
| 20260510062002 | 7 | 16 | 0.0 | 0.0 | 0.00 | 0.00 | 0.00 | 63 | 1014.3 |
| 20260510061501 | 7 | 16 | 0.0 | 0.0 | 0.00 | 0.00 | 0.00 | 63 | 1014.1 |
| 20260510060002 | 7 | 5 | 0.0 | 0.0 | 0.00 | 0.00 | 0.00 | 62 | 1013.9 |
| 20260510055501 | 7 | 16 | 0.0 | 0.0 | 0.00 | 0.00 | 0.00 | 62 | 1013.9 |
| 20260510055001 | 7 | 4 | 0.0 | 0.0 | 0.00 | 0.00 | 0.00 | 63 | 1014.0 |
| 20260510054502 | 7 | 2 | 0.0 | 0.0 | 0.00 | 0.00 | 0.00 | 63 | 1013.8 |
| 20260510054001 | 8 | 3 | 0.0 | 0.0 | 0.00 | 0.00 | 0.00 | 62 | 1013.8 |
| 20260510053502 | 8 | 21 | 0.0 | 0.0 | 0.00 | 0.00 | 0.00 | 62 | 1013.7 |
| 20260510053002 | 8 | 15 | 0.0 | 0.0 | 0.00 | 0.00 | 0.00 | 61 | 1013.6 |
| 20260510052502 | 8 | 9 | 0.0 | 0.0 | 0.00 | 0.00 | 0.00 | 60 | 1013.7 |
| 20260510051501 | 8 | 13 | 0.0 | 0.0 | 0.00 | 0.00 | 0.00 | 60 | 1013.5 |
| 20260510051002 | 8 | 12 | 0.0 | 0.0 | 0.00 | 0.00 | 0.00 | 62 | 1013.4 |
| 20260510045001 | 8 | 351 | 0.0 | 0.0 | 0.00 | 0.00 | 0.00 | 65 | 1013.1 |
| 20260510044502 | 8 | 23 | 0.0 | 0.0 | 0.00 | 0.00 | 0.00 | 65 | 1012.9 |
| 20260510044001 | 7 | 22 | 0.0 | 0.0 | 0.00 | 0.00 | 0.00 | 68 | 1012.9 |
| 20260510043502 | 7 | 16 | 0.0 | 0.0 | 0.00 | 0.00 | 0.00 | 74 | 1012.6 |
| 20260510042502 | 7 | 16 | 0.0 | 0.0 | 0.00 | 0.00 | 0.00 | 73 | 1012.6 |
| 20260510042001 | 7 | 16 | 0.0 | 0.0 | 0.00 | 0.00 | 0.00 | 73 | 1012.4 |
| 20260510041502 | 8 | 16 | 0.0 | 0.0 | 0.00 | 0.00 | 0.00 | 73 | 1012.3 |
| 20260510040502 | 8 | 16 | 0.0 | 0.0 | 0.00 | 0.00 | 0.00 | 72 | 1012.2 |
| 20260510035002 | 9 | 16 | 0.0 | 0.0 | 0.00 | 0.00 | 0.00 | 68 | 1012.0 |
| 20260510033001 | 10 | 27 | 0.0 | 0.0 | 0.00 | 0.00 | 0.00 | 64 | 1011.7 |
| 20260510031711 | 11 | 27 | 0.0 | 0.0 | 0.00 | 0.00 | 0.00 | 60 | 1011.6 |
| 20260510031002 | 11 | 10 | 0.0 | 0.0 | 0.00 | 0.00 | 0.00 | 59 | 1011.3 |
| 20260510025501 | 12 | 38 | 0.0 | 0.0 | 0.00 | 0.00 | 0.00 | 54 | 1011.3 |
| 20260510024003 | 13 | 43 | 0.0 | 0.0 | 0.00 | 0.00 | 0.00 | 48 | 1010.9 |
| 20260510023502 | 13 | 344 | 1.6 | 3.2 | 0.00 | 0.00 | 0.00 | 49 | 1010.9 |
| 20260510023001 | 13 | 10 | 0.0 | 0.0 | 0.00 | 0.00 | 0.00 | 48 | 1010.7 |
| 20260510022502 | 13 | 38 | 3.2 | 6.4 | 0.00 | 0.00 | 0.00 | 48 | 1010.8 |
| 20260510021001 | 13 | 355 | 0.0 | 0.0 | 0.00 | 0.00 | 0.00 | 49 | 1010.3 |
| 20260510020502 | 13 | 145 | 3.2 | 4.8 | 0.00 | 0.00 | 0.00 | 47 | 1010.4 |
| 20260510020002 | 13 | 343 | 0.0 | 0.0 | 0.00 | 0.00 | 0.00 | 48 | 1010.1 |
| 20260510015002 | 14 | 327 | 1.6 | 3.2 | 0.00 | 0.00 | 0.00 | 48 | 1009.8 |
| 20260510014002 | 14 | 273 | 3.2 | 3.2 | 0.00 | 0.00 | 0.00 | 47 | 1009.5 |
| 20260510013501 | 14 | 300 | 1.6 | 3.2 | 0.00 | 0.00 | 0.00 | 46 | 1009.4 |
| 20260510013002 | 14 | 341 | 0.0 | 0.0 | 0.00 | 0.00 | 0.00 | 46 | 1009.4 |
| 20260510012502 | 14 | 15 | 1.6 | 3.2 | 0.00 | 0.00 | 0.00 | 45 | 1008.9 |
| 20260510012002 | 14 | 46 | 1.6 | 3.2 | 0.00 | 0.00 | 0.00 | 45 | 1008.9 |
| 20260510011001 | 15 | 318 | 1.6 | 3.2 | 0.00 | 0.00 | 0.00 | 45 | 1008.8 |
| 20260510010502 | 15 | 287 | 3.2 | 4.8 | 0.00 | 0.00 | 0.00 | 44 | 1008.7 |
| 20260510010001 | 15 | 25 | 0.0 | 0.0 | 0.00 | 0.00 | 0.00 | 43 | 1008.3 |
| 20260510005001 | 16 | 211 | 3.2 | 4.8 | 0.00 | 0.00 | 0.00 | 41 | 1008.1 |
| 20260510004002 | 16 | 322 | 3.2 | 3.2 | 0.00 | 0.00 | 0.00 | 43 | 1007.7 |
| 20260510002501 | 16 | 314 | 1.6 | 3.2 | 0.00 | 0.00 | 0.00 | 44 | 1007.4 |
| 20260510002002 | 16 | 357 | 1.6 | 3.2 | 0.00 | 0.00 | 0.00 | 44 | 1007.3 |
| 20260510001501 | 16 | 216 | 1.6 | 3.2 | 0.00 | 0.00 | 0.00 | 44 | 1007.1 |
| 20260510001002 | 16 | 331 | 0.0 | 0.0 | 0.00 | 0.00 | 0.00 | 45 | 1007.1 |
| 20260510000501 | 16 | 209 | 3.2 | 4.8 | 0.00 | 0.00 | 0.00 | 45 | 1007.2 |
| 20260510000002 | 16 | 333 | 3.2 | 3.2 | 0.00 | 0.00 | 0.00 | 44 | 1006.9 |
| 20260509235002 | 17 | 198 | 3.2 | 4.8 | 0.00 | 0.00 | 0.00 | 42 | 1006.8 |
| 20260509234502 | 17 | 304 | 0.0 | 0.0 | 0.00 | 0.00 | 0.00 | 43 | 1006.8 |
| 20260509234001 | 17 | 342 | 0.0 | 0.0 | 0.00 | 0.00 | 0.00 | 45 | 1006.6 |
| 20260509233001 | 17 | 343 | 0.0 | 0.0 | 0.00 | 0.00 | 0.00 | 42 | 1006.6 |
| 20260509232502 | 17 | 340 | 0.0 | 0.0 | 0.00 | 0.00 | 0.00 | 43 | 1006.7 |
| 20260509232001 | 17 | 204 | 3.2 | 4.8 | 0.00 | 0.00 | 0.00 | 40 | 1006.6 |
| 20260509231502 | 17 | 328 | 1.6 | 3.2 | 0.00 | 0.00 | 0.00 | 42 | 1006.5 |
| 20260509231001 | 17 | 347 | 1.6 | 3.2 | 0.00 | 0.00 | 0.00 | 43 | 1006.6 |
| 20260509230501 | 17 | 250 | 1.6 | 3.2 | 0.00 | 0.00 | 0.00 | 43 | 1006.4 |
| 20260509230002 | 18 | 265 | 1.6 | 4.8 | 0.00 | 0.00 | 0.00 | 42 | 1006.2 |